Terug naar catalogus

YAOGAN-39 01A

ActiefMilitairVLEO
NORAD 57727·PAYLOAD·🇨🇳 China

Gelanceerd Aug 31, 2023 vanaf Xichang Satellite Launch Center

Loading…

Volgende Passages (komende 24 uur)

TLE

VersSource: Space-Track

Epoch: Sep 14, 2026, 13:12 UTC

1 57727U 23130A   26257.55012575  .00006237  00000-0  26072-3 0  9997
2 57727  35.0035 286.7582 0003569 226.7778 133.2639 15.22929557169343

Volg YAOGAN-39 01A in realtime met AllMySat

Download on the App Store